Time,TemperatureF,DewpointF,PressureIn,WindDirection,WindDirectionDegrees,WindSpeedMPH,WindSpeedGustMPH,Humidity,HourlyPrecipIn,Conditions,Clouds,dailyrainin,SoftwareType,DateUTC
2013-08-09 08:52:00,76.0,73.0,29.96,East,90,0.0,-999.0,90,-99.99,,,-99.99,,2013-08-09 13:52:00,
2013-08-09 09:02:00,77.0,74.0,29.96,ENE,65,0.0,-999.0,89,-99.99,,,-99.99,,2013-08-09 14:02:00,
2013-08-09 09:11:00,78.0,74.0,29.95,ENE,67,0.0,-999.0,87,-99.99,,,-99.99,,2013-08-09 14:11:00,
2013-08-09 09:22:00,78.0,73.0,29.95,ENE,59,0.0,-999.0,86,-99.99,,,-99.99,,2013-08-09 14:22:00,
2013-08-09 09:33:00,78.0,73.0,29.96,ENE,59,0.0,-999.0,86,-99.99,,,-99.99,,2013-08-09 14:33:00,
2013-08-09 09:43:00,79.0,74.0,29.96,ENE,59,0.0,-999.0,85,-99.99,,,-99.99,,2013-08-09 14:43:00,
2013-08-09 09:53:00,80.0,74.0,29.96,NNE,28,0.0,-999.0,83,-99.99,,,-99.99,,2013-08-09 14:53:00,
2013-08-09 10:02:00,80.0,74.0,29.96,NNE,28,0.0,-999.0,81,-99.99,,,-99.99,,2013-08-09 15:02:00,
2013-08-09 10:11:00,81.0,75.0,29.96,NNE,32,0.0,-999.0,81,-99.99,,,-99.99,,2013-08-09 15:11:00,
2013-08-09 10:22:00,81.0,73.0,29.96,East,81,0.0,-999.0,78,-99.99,,,-99.99,,2013-08-09 15:22:00,
2013-08-09 10:33:00,82.0,74.0,29.97,NNE,32,0.0,-999.0,77,-99.99,,,-99.99,,2013-08-09 15:33:00,
2013-08-09 10:44:00,82.0,74.0,29.96,NNE,32,0.0,-999.0,78,-99.99,,,-99.99,,2013-08-09 15:44:00,
2013-08-09 10:53:00,83.0,75.0,29.97,NNE,32,0.0,-999.0,76,-99.99,,,-99.99,,2013-08-09 15:53:00,
2013-08-09 11:01:00,82.0,74.0,29.98,WNW,300,0.0,-999.0,77,-99.99,,,-99.99,,2013-08-09 16:01:00,
2013-08-09 11:11:00,82.0,74.0,29.98,WNW,299,0.0,-999.0,78,-99.99,,,-99.99,,2013-08-09 16:11:00,
2013-08-09 11:22:00,82.0,74.0,29.99,WNW,282,0.0,-999.0,78,-99.99,,,-99.99,,2013-08-09 16:22:00,
2013-08-09 11:32:00,82.0,75.0,29.98,West,261,0.0,-999.0,80,-99.99,,,-99.99,,2013-08-09 16:32:00,
2013-08-09 11:43:00,82.0,74.0,29.98,WSW,237,1.0,-999.0,78,-99.99,,,-99.99,,2013-08-09 16:43:00,
2013-08-09 11:53:00,82.0,74.0,29.99,WSW,254,6.0,-999.0,77,-99.99,,,-99.99,,2013-08-09 16:53:00,
2013-08-09 12:02:00,82.0,75.0,29.99,West,278,6.0,-999.0,79,-99.99,,,-99.99,,2013-08-09 17:02:00,
2013-08-09 12:11:00,82.0,74.0,29.99,WNW,302,4.0,-999.0,78,-99.99,,,-99.99,,2013-08-09 17:11:00,
2013-08-09 12:22:00,82.0,74.0,29.98,West,271,6.0,-999.0,76,-99.99,,,-99.99,,2013-08-09 17:22:00,
2013-08-09 12:33:00,82.0,74.0,29.97,NW,319,6.0,-999.0,77,-99.99,,,-99.99,,2013-08-09 17:33:00,
2013-08-09 12:43:00,83.0,75.0,29.97,West,280,5.0,-999.0,77,-99.99,,,-99.99,,2013-08-09 17:43:00,
2013-08-09 12:52:00,83.0,74.0,29.97,West,277,2.0,-999.0,75,-99.99,,,-99.99,,2013-08-09 17:52:00,
2013-08-09 13:01:00,83.0,73.0,29.96,WNW,286,4.0,-999.0,72,-99.99,,,-99.99,,2013-08-09 18:01:00,
2013-08-09 13:11:00,83.0,73.0,29.96,NW,304,4.0,-999.0,72,-99.99,,,-99.99,,2013-08-09 18:11:00,
2013-08-09 13:22:00,83.0,74.0,29.96,West,266,2.0,-999.0,74,-99.99,,,-99.99,,2013-08-09 18:22:00,
2013-08-09 13:32:00,84.0,75.0,29.95,North,350,1.0,-999.0,74,-99.99,,,-99.99,,2013-08-09 18:32:00,
2013-08-09 13:43:00,84.0,75.0,29.95,WNW,296,0.0,-999.0,74,-99.99,,,-99.99,,2013-08-09 18:43:00,
2013-08-09 13:53:00,85.0,75.0,29.95,WNW,283,1.0,-999.0,72,-99.99,,,-99.99,,2013-08-09 18:53:00,
2013-08-09 14:02:00,85.0,75.0,29.95,North,5,1.0,-999.0,72,-99.99,,,-99.99,,2013-08-09 19:02:00,
2013-08-09 14:11:00,85.0,74.0,29.95,NNW,339,0.0,-999.0,70,-99.99,,,-99.99,,2013-08-09 19:11:00,
2013-08-09 14:22:00,85.0,75.0,29.95,NNE,24,0.0,-999.0,72,-99.99,,,-99.99,,2013-08-09 19:22:00,
2013-08-09 14:32:00,84.0,74.0,29.94,NNE,16,0.0,-999.0,72,-99.99,,,-99.99,,2013-08-09 19:32:00,
2013-08-09 14:43:00,84.0,74.0,29.95,NW,309,1.0,-999.0,73,-99.99,,,-99.99,,2013-08-09 19:43:00,
2013-08-09 14:52:00,84.0,74.0,29.95,North,11,1.0,-999.0,73,-99.99,,,-99.99,,2013-08-09 19:52:00,
2013-08-09 15:02:00,85.0,75.0,29.95,NW,317,2.0,-999.0,73,-99.99,,,-99.99,,2013-08-09 20:02:00,
2013-08-09 15:11:00,85.0,75.0,29.95,NW,319,0.0,-999.0,73,-99.99,,,-99.99,,2013-08-09 20:11:00,
2013-08-09 15:22:00,85.0,75.0,29.95,NNW,345,0.0,-999.0,73,-99.99,,,-99.99,,2013-08-09 20:22:00,
2013-08-09 15:32:00,86.0,75.0,29.96,WNW,295,0.0,-999.0,69,-99.99,,,-99.99,,2013-08-09 20:32:00,
2013-08-09 15:43:00,85.0,74.0,29.96,NNE,19,1.0,-999.0,70,-99.99,,,-99.99,,2013-08-09 20:43:00,
2013-08-09 15:52:00,86.0,75.0,29.95,North,355,1.0,-999.0,70,-99.99,,,-99.99,,2013-08-09 20:52:00,
2013-08-09 16:01:00,85.0,75.0,29.94,North,350,1.0,-999.0,71,-99.99,,,-99.99,,2013-08-09 21:01:00,
2013-08-09 16:12:00,85.0,75.0,29.94,North,10,1.0,-999.0,73,-99.99,,,-99.99,,2013-08-09 21:12:00,
2013-08-09 16:22:00,84.0,74.0,29.94,NW,315,0.0,-999.0,72,-99.99,,,-99.99,,2013-08-09 21:22:00,
2013-08-09 16:33:00,84.0,74.0,29.94,NNW,338,1.0,-999.0,73,-99.99,,,-99.99,,2013-08-09 21:33:00,
2013-08-09 16:43:00,84.0,74.0,29.94,WNW,300,1.0,-999.0,73,-99.99,,,-99.99,,2013-08-09 21:43:00,
2013-08-09 16:52:00,85.0,75.0,29.94,NNW,333,0.0,-999.0,72,-99.99,,,-99.99,,2013-08-09 21:52:00,
2013-08-09 17:01:00,85.0,74.0,29.95,NNE,22,1.0,-999.0,70,-99.99,,,-99.99,,2013-08-09 22:01:00,
2013-08-09 17:11:00,86.0,75.0,29.95,North,355,0.0,-999.0,71,-99.99,,,-99.99,,2013-08-09 22:11:00,
2013-08-09 17:22:00,86.0,75.0,29.95,NNE,25,0.0,-999.0,69,-99.99,,,-99.99,,2013-08-09 22:22:00,
2013-08-09 17:32:00,85.0,74.0,29.95,ENE,63,1.0,-999.0,70,-99.99,,,-99.99,,2013-08-09 22:32:00,
2013-08-09 17:42:00,85.0,75.0,29.95,NE,50,0.0,-999.0,71,-99.99,,,-99.99,,2013-08-09 22:42:00,
2013-08-09 17:52:00,85.0,75.0,29.95,NNE,21,0.0,-999.0,72,-99.99,,,-99.99,,2013-08-09 22:52:00,
2013-08-09 18:01:00,85.0,75.0,29.95,NNE,27,0.0,-999.0,72,-99.99,,,-99.99,,2013-08-09 23:01:00,
2013-08-09 18:11:00,85.0,75.0,29.95,NNE,15,0.0,-999.0,72,-99.99,,,-99.99,,2013-08-09 23:11:00,
2013-08-09 18:22:00,85.0,75.0,29.95,NNE,14,0.0,-999.0,72,-99.99,,,-99.99,,2013-08-09 23:22:00,
2013-08-09 18:32:00,85.0,75.0,29.94,NNE,33,0.0,-999.0,73,-99.99,,,-99.99,,2013-08-09 23:32:00,
2013-08-09 18:43:00,85.0,75.0,29.94,NNE,33,0.0,-999.0,73,-99.99,,,-99.99,,2013-08-09 23:43:00,
2013-08-09 18:52:00,85.0,76.0,29.94,NNE,29,0.0,-999.0,74,-99.99,,,-99.99,,2013-08-09 23:52:00,
2013-08-09 19:01:00,84.0,75.0,29.94,North,5,0.0,-999.0,74,-99.99,,,-99.99,,2013-08-10 00:01:00,
2013-08-09 19:11:00,84.0,75.0,29.94,NE,36,0.0,-999.0,74,-99.99,,,-99.99,,2013-08-10 00:11:00,
2013-08-09 19:22:00,84.0,75.0,29.94,NNE,28,0.0,-999.0,75,-99.99,,,-99.99,,2013-08-10 00:22:00,
2013-08-09 19:33:00,83.0,74.0,29.94,NNE,28,0.0,-999.0,75,-99.99,,,-99.99,,2013-08-10 00:33:00,
2013-08-09 19:43:00,83.0,74.0,29.94,North,-999,-999.0,-999.0,75,-99.99,,,-99.99,,2013-08-10 00:43:00,
2013-08-09 19:52:00,83.0,74.0,29.94,North,-999,-999.0,-999.0,75,-99.99,,,-99.99,,2013-08-10 00:52:00,